Date String (YYYY-MM-DD hh:mm:ss) UTC,Instrument flags,Ambient pressure (hPa),Sample flow (lpm),Bypass flow (lpm),Sample temperature (°C),Ambient temperature (°C),ASC tube jacket temperature (°C),LED temperature (°C),Box temperature (°C),Sample RH (%),Span deviation,Mass concentration (μg/m³),Mass concentration (μg/m³),Mass concentration (μg/m³)
DateTimeUTC,F1_M11,P_M11,Q1_M11,Q2_M11,T1_M11,T2_M11,T3_M11,T4_M11,T5_M11,U1_M11,ZSPAN_M11,X0_M11,X2_M11,X1_M11
2022-10-14 23:00:00,,0822.1,5.00,0.00,29.6,27.7,00.0,38.4,31.4,09.0,0000.0,0015.09,0003.82,0002.82
2022-10-14 23:01:00,,0822.1,4.99,0.00,29.6,27.9,00.0,38.4,31.5,09.1,0000.0,0014.17,0003.82,0002.82
2022-10-14 23:02:00,,0822.1,5.01,0.00,29.6,28.1,00.0,38.4,31.5,09.0,0000.0,0014.04,0003.80,0002.83
2022-10-14 23:03:00,,0822.1,5.00,0.00,29.7,28.3,00.0,38.4,31.6,09.0,0000.0,0013.78,0003.79,0002.81
2022-10-14 23:04:00,,0822.1,5.00,0.00,29.7,28.4,00.0,38.4,31.6,08.9,0000.0,0013.45,0003.78,0002.80
2022-10-14 23:05:00,,0822.1,5.00,0.00,29.7,28.6,00.0,38.5,31.7,09.0,0000.0,0013.22,0003.75,0002.80
2022-10-14 23:06:00,,0822.1,5.00,0.00,29.7,28.7,00.0,38.5,31.7,09.2,0000.0,0013.43,0003.73,0002.80
2022-10-14 23:07:00,,0822.1,5.00,0.00,29.8,28.8,00.0,38.5,31.8,09.1,0000.0,0013.86,0003.72,0002.80
2022-10-14 23:08:00,,0822.1,5.00,0.00,29.8,28.8,00.0,38.5,31.8,09.0,0000.0,0012.84,0003.67,0002.79
2022-10-14 23:09:00,,0822.1,5.00,0.00,29.9,28.9,00.0,38.5,31.8,08.7,0000.0,0012.27,0003.72,0002.79
2022-10-14 23:10:00,,0822.1,5.00,0.00,29.9,29.0,00.0,38.6,31.9,08.8,0000.0,0012.60,0003.74,0002.78
2022-10-14 23:11:00,,0822.2,4.99,0.00,29.9,28.2,00.0,38.6,31.8,08.8,0000.0,0013.08,0003.76,0002.80
2022-10-14 23:12:00,,0822.1,5.01,0.00,29.9,26.8,00.0,38.5,31.6,08.8,0000.0,0012.85,0003.74,0002.80
2022-10-14 23:13:00,,0822.2,5.00,0.00,29.8,26.1,00.0,38.5,31.5,08.9,0000.0,0013.90,0003.76,0002.78
2022-10-14 23:14:00,,0822.2,4.99,0.00,29.7,26.3,00.0,38.4,31.4,08.9,0000.0,0013.84,0003.75,0002.80
2022-10-14 23:15:00,,0822.2,5.01,0.00,29.6,26.7,00.0,38.4,31.4,09.1,0000.0,0014.68,0003.75,0002.81
2022-10-14 23:16:00,,0822.2,4.99,0.00,29.6,27.1,00.0,38.4,31.4,09.2,0000.0,0015.26,0003.75,0002.80
2022-10-14 23:17:00,,0822.2,5.01,0.00,29.6,27.4,00.0,38.4,31.4,09.4,0000.0,0014.37,0003.78,0002.79
2022-10-14 23:18:00,,0822.2,5.01,0.00,29.6,27.7,00.0,38.4,31.4,09.4,0000.0,0014.01,0003.78,0002.80
2022-10-14 23:19:00,,0822.2,4.99,0.00,29.6,27.9,00.0,38.4,31.5,09.2,0000.0,0014.35,0003.83,0002.80
2022-10-14 23:20:00,,0822.2,4.99,0.00,29.6,28.2,00.0,38.4,31.5,09.3,0000.0,0014.62,0003.80,0002.80
2022-10-14 23:21:00,,0822.2,5.00,0.00,29.6,28.3,00.0,38.4,31.6,09.4,0000.0,0013.56,0003.78,0002.80
2022-10-14 23:22:00,,0822.3,5.00,0.00,29.7,28.5,00.0,38.4,31.6,09.0,0000.0,0012.49,0003.73,0002.79
2022-10-14 23:23:00,,0822.3,5.00,0.00,29.7,28.6,00.0,38.4,31.6,09.2,0000.0,0012.30,0003.72,0002.78
2022-10-14 23:24:00,,0822.3,5.01,0.00,29.7,28.7,00.0,38.4,31.7,09.0,0000.0,0011.05,0003.73,0002.78
2022-10-14 23:25:00,,0822.3,5.01,0.00,29.8,28.8,00.0,38.5,31.8,09.0,0000.0,0010.86,0003.73,0002.76
2022-10-14 23:26:00,,0822.3,5.00,0.00,29.8,28.8,00.0,38.5,31.8,08.8,0000.0,0012.37,0003.73,0002.76
2022-10-14 23:27:00,,0822.4,4.99,0.00,29.8,28.9,00.0,38.5,31.8,08.9,0000.0,0012.31,0003.77,0002.79
2022-10-14 23:28:00,,0822.4,4.99,0.00,29.9,29.0,00.0,38.5,31.9,08.9,0000.0,0012.50,0003.79,0002.82
2022-10-14 23:29:00,,0822.4,4.99,0.00,29.9,28.4,00.0,38.5,31.8,08.9,0000.0,0012.53,0003.82,0002.84
2022-10-14 23:30:00,,0822.4,5.02,0.00,29.9,26.9,00.0,38.5,31.6,09.0,0000.0,0013.62,0003.81,0002.85
2022-10-14 23:31:00,,0822.4,5.00,0.00,29.8,26.1,00.0,38.5,31.5,09.1,0000.0,0014.28,0003.85,0002.85
2022-10-14 23:32:00,,0822.4,4.99,0.00,29.7,26.2,00.0,38.4,31.4,09.1,0000.0,0014.46,0003.86,0002.86
2022-10-14 23:33:00,,0822.4,5.02,0.00,29.6,26.6,00.0,38.4,31.3,09.1,0000.0,0015.98,0003.89,0002.86
2022-10-14 23:34:00,,0822.4,4.99,0.00,29.6,27.0,00.0,38.4,31.3,09.2,0000.0,0016.38,0003.92,0002.87
2022-10-14 23:35:00,,0822.5,5.00,0.00,29.6,27.3,00.0,38.4,31.4,09.2,0000.0,0017.49,0003.93,0002.87
2022-10-14 23:36:00,,0822.4,5.01,0.00,29.6,27.6,00.0,38.4,31.4,09.2,0000.0,0017.77,0003.95,0002.88
2022-10-14 23:37:00,,0822.4,4.99,0.00,29.6,27.9,00.0,38.4,31.4,09.1,0000.0,0015.67,0003.96,0002.87
2022-10-14 23:38:00,,0822.5,4.99,0.00,29.6,28.1,00.0,38.4,31.5,09.2,0000.0,0015.73,0003.97,0002.86
2022-10-14 23:39:00,,0822.4,5.00,0.00,29.6,28.3,00.0,38.4,31.5,09.2,0000.0,0016.10,0003.95,0002.84
2022-10-14 23:40:00,,0822.5,5.01,0.00,29.6,28.4,00.0,38.4,31.6,09.2,0000.0,0015.58,0003.91,0002.82
2022-10-14 23:41:00,,0822.5,5.00,0.00,29.6,28.5,00.0,38.4,31.6,09.2,0000.0,0014.68,0003.89,0002.81
2022-10-14 23:42:00,,0822.6,5.00,0.00,29.7,28.6,00.0,38.4,31.7,09.3,0000.0,0013.94,0003.84,0002.81
2022-10-14 23:43:00,,0822.6,5.00,0.00,29.7,28.7,00.0,38.4,31.7,09.2,0000.0,0014.15,0003.82,0002.80
2022-10-14 23:44:00,,0822.6,5.00,0.00,29.8,28.8,00.0,38.5,31.7,09.2,0000.0,0012.90,0003.80,0002.82
2022-10-14 23:45:00,,0822.6,5.00,0.00,29.8,28.9,00.0,38.5,31.8,09.1,0000.0,0012.52,0003.79,0002.82
2022-10-14 23:46:00,,0822.6,4.98,0.00,29.8,28.9,00.0,38.5,31.8,09.0,0000.0,0011.56,0003.80,0002.82
2022-10-14 23:47:00,,0822.7,5.01,0.00,29.8,27.9,00.0,38.5,31.7,09.0,0000.0,0011.45,0003.76,0002.82
2022-10-14 23:48:00,,0822.6,5.00,0.00,29.8,26.8,00.0,38.4,31.6,09.0,0000.0,0011.83,0003.73,0002.83
2022-10-14 23:49:00,,0822.7,5.01,0.00,29.8,26.9,00.0,38.4,31.5,09.1,0000.0,0013.12,0003.72,0002.83
2022-10-14 23:50:00,,0822.6,4.99,0.00,29.7,27.1,00.0,38.4,31.4,09.0,0000.0,0012.81,0003.72,0002.83
2022-10-14 23:51:00,,0822.6,5.01,0.00,29.7,27.4,00.0,38.4,31.4,08.9,0000.0,0012.94,0003.72,0002.84
2022-10-14 23:52:00,,0822.7,4.99,0.00,29.7,27.7,00.0,38.4,31.5,08.9,0000.0,0013.03,0003.73,0002.84
2022-10-14 23:53:00,,0822.6,5.02,0.00,29.7,28.0,00.0,38.4,31.5,08.8,0000.0,0013.15,0003.76,0002.84
2022-10-14 23:54:00,,0822.6,4.99,0.00,29.7,28.2,00.0,38.4,31.6,08.8,0000.0,0012.87,0003.77,0002.82
2022-10-14 23:55:00,,0822.6,5.00,0.00,29.7,28.4,00.0,38.4,31.6,08.9,0000.0,0012.87,0003.78,0002.81
2022-10-14 23:56:00,,0822.7,5.02,0.00,29.7,28.5,00.0,38.5,31.7,08.9,0000.0,0012.84,0003.77,0002.81
2022-10-14 23:57:00,,0822.7,4.99,0.00,29.8,28.6,00.0,38.5,31.7,08.9,0000.0,0013.46,0003.74,0002.81
2022-10-14 23:58:00,,0822.7,5.00,0.00,29.8,28.8,00.0,38.5,31.8,08.8,0000.0,0013.47,0003.73,0002.82
2022-10-14 23:59:00,,0822.7,5.00,0.00,29.8,28.8,00.0,38.5,31.8,08.7,0000.0,0013.36,0003.73,0002.84
